Location: Newark
(45.2500°N, 7.5833°E)
Time: 03:08:17
(UTC+00:00)

N. Korean satellite - Pass Details

Date: 16 December 2019
Orbit: 454 x 507 km, 97.2° (Epoch: 23 January)

Event Time Altitude Azimuth Distance (km) Brightness Sun altitude
Rises 05:34:18 0° 9° (N) 2,527 10.1 -14.8°
Reaches altitude 10° 05:36:23 10° 7° (N) 1,636 9.1 -14.4°
Maximum altitude 05:39:52 69° 285° (WNW) 502 6.3 -13.8°
Drops below altitude 10° 05:43:17 10° 201° (SSW) 1,599 9.2 -13.3°
Sets 05:45:18 0° 199° (SSW) 2,463 10.2 -12.9°
